Starlink 33670

operational
NORAD ID: 63413 Int'l Des: 2025-065 Owner: SPXS Country: US Constellation: starlink
LEOCIRCULAR

About Starlink 33670

Description loading...

Live Position

Loading 3D Globe...

Upcoming Passes

Altitude History

Altitude vs Time

uPlot chart will show altitude changes over time

Two-Line Element Set

1 63413U 25065Q 25346.08735375 .00049983 00000-0 18117-2 0 9996
2 63413 42.9991 241.6559 0001433 264.8807 95.1881 15.27614934 39445
Epoch: Dec 12, 2025 • Age: 36 hours

Current Status

Altitude 494.6 km
Velocity 7.62 km/s
Sub-Earth Point -42.55°S, 134.93°W
Launch Date Mar 31, 2025
Age 0.7 years
Type internet

Technical Details

Classification Payload
Mass 575.00 kg
Dry Mass 530.00 kg
Total Mass 575.00 kg
Length 0.30 m
Diameter 4.10 m
Span 29.00 m
Shape Box + pan
Manufacturer SPXS
Bus Type Starlink V2MO
Phase Status In Orbit
Owner/State SPXS/US

Large Constellations

Loading constellations...